Miscellaneous Local Product
Issued by NWS North Platte, NE

Home | Current Version | Previous Version | Text Only | Print | Product List | Glossary On
Versions: 1 2 3 4 5 6 7 8 9 10 11 12 13 14 15 16 17 18 19 20 21 22 23 24 25 26 27 28 29 30 31 32 33 34 35 36 37 38 39 40 41 42 43 44 45 46 47 48 49 50
000
AXUS43 KLBF 291110
MISLBF


WESTERN AND NORTH CENTRAL NEBRASKA HOURLY WEATHER ROUNDUP
NATIONAL WEATHER SERVICE NORTH PLATTE NE
600 AM CDT FRI AUG 29 2014

***STATIONS NOT REPORTING VARIABLES SUCH AS SKY/WEATHER OR
PRESSURE ARE PROVIDED BY THE NEBRASKA DEPARTMENT OF
ROADS...RAWS...AND APRS NETWORKS...AND ARE NOT UNDER
NATIONAL WEATHER SERVICE QUALITY CONTROL***

...OBSERVATIONS IN AND NEAR THE EASTERN PANHANDLE OF NEBRASKA...

CITY           SKY/WX    TMP DP  RH WIND       PRES   REMARKS
PINE RIDGE     CLEAR     48  48 100 CALM      29.92R
CHADRON        CLEAR     53  51  93 SW6       29.93R
ALLIANCE       CLEAR     50  48  93 W8        29.95S
SIDNEY         CLEAR     52  47  83 W8        30.00S
WHITECLAY        N/A     47  46  93 E3          N/A
RUSHVILLE        N/A     48  46  95 W7          N/A
GORDON           N/A     56  49  78 W8          N/A
CRESCENT LAKE    N/A     54  49  83 NW3         N/A
LISCO            N/A     52  48  87 W5          N/A
BIG SPRINGS      N/A     55  53  94 NW3         N/A
$$

...OBSERVATIONS IN NORTH CENTRAL NEBRASKA...

CITY           SKY/WX    TMP DP  RH WIND       PRES   REMARKS
VALENTINE      PTCLDY    57  57 100 W7        29.87S
THEDFORD       CLEAR     56  55  95 W6        29.90R
AINSWORTH      CLEAR     59  58  97 W5        29.86F
O`NEILL        MOCLDY    63  63  99 W3        29.82S
ORD            MOCLDY    60  59  96 NW3       29.82S
BROKEN BOW     CLEAR     61  57  87 CALM      29.86S
SPRINGVIEW       N/A     62  60  95 CALM        N/A
ROSE             N/A     61  61  99 SW3         N/A
NEWPORT          N/A     62  62  99 W8          N/A
SARGENT          N/A     59  58  96 CALM        N/A
COMSTOCK         N/A     65  63  91 CALM        N/A
CHAMBERS         N/A     62  61  97 W3          N/A
EWING            N/A     62  61  97 CALM        N/A
$$

...OBSERVATIONS IN SOUTHWEST NEBRASKA AND FAR NORTHEAST COLORADO...

CITY           SKY/WX    TMP DP  RH WIND       PRES   REMARKS
WRAY             N/A    N/A N/A N/A W3        29.97F
HOLYOKE        FAIR      59  52  77 W12       29.96S
IMPERIAL       CLEAR     57  52  83 NW9       29.93F
OGALLALA       CLEAR     50  49  97 W3        29.94S
NORTH PLATTE   CLEAR     54  52  93 CALM      29.90S
MCCOOK         CLEAR     58  55  90 W7        29.90R
LEXINGTON      PTCLDY    60  59  95 NW5       29.86S
PAXTON           N/A     56  54  92 CALM        N/A
SUTHERLAND       N/A     51  49  93 W5          N/A
BRADY            N/A     57  54  91 CALM        N/A
GOTHENBURG       N/A     60  55  84 W3          N/A
CALLAWAY         N/A     59  57  94 NW3         N/A
$$

...SOME WEATHER OBSERVATIONS FROM AROUND THE REGION...

CITY           SKY/WX    TMP DP  RH WIND       PRES   REMARKS
DENVER         CLEAR     55  45  68 SW12      30.08S
LARAMIE        PTCLDY    44  41  89 CALM      30.20S
CHEYENNE       PTCLDY    54  41  61 NW8       30.11S
SCOTTSBLUFF    CLEAR     49  48  97 NW8       29.98S
RAPID CITY     CLEAR     61  50  67 W7        29.89S
PIERRE         CLOUDY    65  65 100 CALM      29.81R FOG
WINNER         CLOUDY    66  64  93 W8        29.83S
SIOUX FALLS    CLOUDY    70  68  93 S7        29.77S
OMAHA          MOCLDY    71  69  93 SE7       29.79F
GRAND ISLAND   CLOUDY    66  64  93 CALM      29.82F
KANSAS CITY    MOCLDY    70  64  81 SW8       29.86R
WICHITA        LGT RAIN  68  65  90 S6        29.87R
HAYS           CLOUDY    63  57  82 W8        29.88S
LIBERAL        CLEAR     61  55  82 W6        29.98S
GOODLAND       CLEAR     55  53  93 W8        29.97S
$$



USA.gov is the U.S. government's official web portal to all federal, state and local government web resources and services.